EW3994 Weather Reports


time (UTC)temp
F
wind
direction
speed
knots
gust
knots
rain 1hr
in
rain 24hr
in
rain mn
in
humidity
%
barometer
mb
20260503214510 58 269 7.0 13.0 0.00 0.19 0.06 64 1011.8
20260503213610 58 272 7.0 13.0 0.00 0.19 0.06 64 1011.6
20260503212710 58 275 6.1 13.0 0.00 0.19 0.06 64 1011.6
20260503211810 58 285 7.0 14.8 0.00 0.19 0.06 64 1011.5
20260503210910 58 279 7.8 14.8 0.00 0.19 0.06 64 1011.4
20260503210009 58 284 7.8 13.0 0.00 0.19 0.06 64 1011.4
20260503203309 58 282 7.8 14.8 0.00 0.19 0.06 64 1011.1
20260503202410 58 290 7.8 14.8 0.00 0.19 0.06 64 1011.0
20260503200609 57 281 8.7 14.8 0.00 0.19 0.06 64 1010.7
20260503195709 58 293 6.1 13.0 0.00 0.19 0.06 64 1010.7
20260503194809 58 290 6.1 12.2 0.00 0.19 0.06 64 1010.8
20260503193909 58 289 6.1 13.0 0.00 0.19 0.06 64 1010.7
20260503193010 58 284 7.0 13.0 0.00 0.19 0.06 64 1010.7
20260503192109 58 279 8.7 17.4 0.00 0.19 0.06 64 1010.7
20260503191209 58 280 7.0 13.0 0.00 0.19 0.06 64 1010.5
20260503190309 58 274 8.7 18.2 0.00 0.19 0.06 64 1010.5
20260503184509 57 279 10.4 20.0 0.00 0.19 0.06 65 1010.4
20260503182709 57 287 8.7 15.6 0.00 0.19 0.06 65 1010.4
20260503181809 57 282 7.0 13.9 0.00 0.20 0.06 65 1010.4
20260503180909 57 283 8.7 20.0 0.00 0.20 0.06 65 1010.4
20260503180008 57 287 7.8 13.0 0.00 0.23 0.06 65 1010.4
20260503174208 57 290 8.7 15.6 0.00 0.24 0.06 65 1010.6
20260503173309 56 290 8.7 15.6 0.00 0.26 0.06 65 1010.7
20260503172409 56 291 8.7 15.6 0.00 0.26 0.06 65 1010.8
20260503171508 56 290 6.1 13.9 0.00 0.29 0.06 65 1010.8
20260503170609 56 290 6.1 13.0 0.00 0.30 0.06 65 1010.8
20260503150909 57 290 9.6 20.0 0.02 0.28 0.02 63 1011.1
20260503130308 56 297 8.7 16.5 0.00 0.27 0.27 64 1011.8
20260503110609 57 286 7.8 16.5 0.11 0.27 0.27 65 1011.6
20260503081508 61 305 7.0 14.8 0.00 0.16 0.16 56 1010.2
20260503071207 60 320 7.8 15.6 0.00 0.16 0.16 58 1010.1
20260503070307 60 323 7.8 14.8 0.01 0.16 0.16 58 1010.1
20260503055107 62 292 11.3 20.9 0.01 0.20 0.15 54 1010.0
20260503053307 64 307 10.4 18.2 0.00 0.21 0.14 47 1009.8
20260503052407 65 297 11.3 20.0 0.00 0.22 0.14 46 1009.7
20260503051507 65 306 11.3 20.9 0.00 0.22 0.14 44 1009.7
20260503050607 65 310 11.3 20.9 0.00 0.22 0.14 46 1009.5
20260503045707 65 315 11.3 20.9 0.00 0.23 0.14 45 1009.7
20260503043907 64 303 11.3 20.9 0.00 0.24 0.14 46 1009.6
20260503042107 65 307 9.6 19.1 0.00 0.28 0.14 46 1009.7
20260503041207 64 299 11.3 22.6 0.00 0.30 0.14 46 1009.8
20260503040307 65 308 13.0 22.6 0.00 0.30 0.14 45 1009.9
20260503033607 66 301 8.7 17.4 0.00 0.31 0.14 46 1010.1
20260503031807 66 304 10.4 19.1 0.00 0.31 0.14 46 1010.2
20260503030907 64 305 13.0 24.3 0.00 0.31 0.14 49 1010.3
20260503030007 63 297 11.3 20.9 0.00 0.31 0.14 50 1010.5
20260503025107 63 303 12.2 23.5 0.00 0.31 0.14 48 1010.5
20260503024206 64 298 11.3 20.9 0.00 0.31 0.14 47 1010.5
20260503023307 65 305 12.2 21.7 0.00 0.31 0.14 45 1010.6
20260503022407 65 323 11.3 20.9 0.00 0.31 0.14 50 1010.6
20260503021507 64 321 9.6 20.9 0.00 0.31 0.14 51 1010.6
20260503020607 62 326 11.3 22.6 0.00 0.31 0.14 53 1010.7
20260503015707 62 321 10.4 19.1 0.00 0.31 0.14 55 1010.7
20260503014807 62 320 11.3 21.7 0.00 0.31 0.14 52 1010.7
20260503013906 62 320 12.2 24.3 0.00 0.31 0.14 52 1010.7
20260503013007 63 316 11.3 19.1 0.00 0.31 0.14 51 1010.7
20260503011207 62 312 12.2 20.9 0.00 0.31 0.14 53 1010.8
20260503004507 61 326 11.3 20.0 0.00 0.31 0.14 55 1010.9
20260503003607 61 320 10.4 19.1 0.00 0.31 0.14 55 1010.9
20260503002707 61 322 8.7 14.8 0.00 0.31 0.14 55 1011.0
20260503001807 60 327 9.6 17.4 0.00 0.31 0.14 57 1011.2
20260503000906 60 335 7.8 14.8 0.00 0.31 0.14 56 1011.1
20260502234206 60 336 7.0 13.0 0.00 0.31 0.14 58 1011.1
20260502233306 59 339 7.0 13.0 0.00 0.31 0.14 58 1011.0
20260502232406 58 334 7.0 16.5 0.00 0.31 0.14 60 1011.2
20260502231507 57 346 7.0 13.0 0.00 0.32 0.14 62 1011.1
20260502230607 55 344 7.0 12.2 0.00 0.33 0.14 64 1011.1
20260502225706 55 344 7.0 12.2 0.00 0.33 0.14 65 1011.1
20260502224807 54 349 7.0 13.9 0.00 0.33 0.14 66 1011.1
20260502223006 53 354 7.0 13.9 0.00 0.33 0.14 67 1011.2
20260502222106 53 1 6.1 12.2 0.00 0.33 0.14 67 1010.9